owner,sensor,date,latitude,longitude,vertical_datum,sea_water_practical_salinity,qcFlag 
DISL,ioos:station:DISL:CATA:1,2008-08-01T00:30:00Z,30.3085,-88.1395,2.202,25.57,1111122 
DISL,ioos:station:DISL:CATA:1,2008-08-01T01:30:00Z,30.3085,-88.1395,2.192,25.38,1111122 
DISL,ioos:station:DISL:CATA:1,2008-08-01T02:30:00Z,30.3085,-88.1395,2.179,25.17,1111122 
DISL,ioos:station:DISL:CATA:1,2008-08-01T03:00:00Z,30.3085,-88.1395,2.189,25.1,1111122 
DISL,ioos:station:DISL:CATA:1,2008-08-01T03:30:00Z,30.3085,-88.1395,2.196,25.09,1111122 
DISL,ioos:station:DISL:CATA:1,2008-08-01T04:00:00Z,30.3085,-88.1395,2.194,25.06,1111122 
DISL,ioos:station:DISL:CATA:1,2008-08-01T04:30:00Z,30.3085,-88.1395,2.206,24.99,1111122 
DISL,ioos:station:DISL:CATA:1,2008-08-01T05:30:00Z,30.3085,-88.1395,2.267,24.99,1111122 
DISL,ioos:station:DISL:CATA:1,2008-08-01T06:30:00Z,30.3085,-88.1395,2.268,25.03,1111122 
DISL,ioos:station:DISL:CATA:1,2008-08-01T07:30:00Z,30.3085,-88.1395,2.296,25.08,1111122 
DISL,ioos:station:DISL:CATA:1,2008-08-01T08:00:00Z,30.3085,-88.1395,2.324,25.1,1111122 
DISL,ioos:station:DISL:CATA:1,2008-08-01T08:30:00Z,30.3085,-88.1395,2.347,25.21,1111122 
DISL,ioos:station:DISL:CATA:1,2008-08-01T09:30:00Z,30.3085,-88.1395,2.424,25.61,1111122 
DISL,ioos:station:DISL:CATA:1,2008-08-01T10:30:00Z,30.3085,-88.1395,2.491,26.03,1111122 
DISL,ioos:station:DISL:CATA:1,2008-08-01T11:00:00Z,30.3085,-88.1395,2.531,26.01,1111122 
DISL,ioos:station:DISL:CATA:1,2008-08-01T11:30:00Z,30.3085,-88.1395,2.566,25.94,1111122 
DISL,ioos:station:DISL:CATA:1,2008-08-01T12:00:00Z,30.3085,-88.1395,2.596,25.75,1111122 
DISL,ioos:station:DISL:CATA:1,2008-08-01T12:30:00Z,30.3085,-88.1395,2.627,25.91,1111122 
DISL,ioos:station:DISL:CATA:1,2008-08-01T13:00:00Z,30.3085,-88.1395,2.672,26.21,1111122 
DISL,ioos:station:DISL:CATA:1,2008-08-01T13:30:00Z,30.3085,-88.1395,2.701,25.96,1111122 
DISL,ioos:station:DISL:CATA:1,2008-08-01T14:30:00Z,30.3085,-88.1395,2.751,25.16,1111122 
DISL,ioos:station:DISL:CATA:1,2008-08-01T15:00:00Z,30.3085,-88.1395,2.749,25.47,1111122 
DISL,ioos:station:DISL:CATA:1,2008-08-01T15:30:00Z,30.3085,-88.1395,2.742,27.55,1111122 
DISL,ioos:station:DISL:CATA:1,2008-08-01T16:00:00Z,30.3085,-88.1395,2.749,27.58,1111122 
DISL,ioos:station:DISL:CATA:1,2008-08-01T16:30:00Z,30.3085,-88.1395,2.751,27.69,1111122 
DISL,ioos:station:DISL:CATA:1,2008-08-01T17:30:00Z,30.3085,-88.1395,2.73,28.08,1111122 
DISL,ioos:station:DISL:CATA:1,2008-08-01T18:00:00Z,30.3085,-88.1395,2.703,28.21,1111122 
DISL,ioos:station:DISL:CATA:1,2008-08-01T18:30:00Z,30.3085,-88.1395,2.661,28.37,1111122 
DISL,ioos:station:DISL:CATA:1,2008-08-01T19:30:00Z,30.3085,-88.1395,2.638,28.65,1111122 
DISL,ioos:station:DISL:CATA:1,2008-08-01T20:00:00Z,30.3085,-88.1395,2.623,28.58,1111122 
DISL,ioos:station:DISL:CATA:1,2008-08-01T20:30:00Z,30.3085,-88.1395,2.61,28.44,1111122 
DISL,ioos:station:DISL:CATA:1,2008-08-01T21:00:00Z,30.3085,-88.1395,2.559,28.24,1111122 
DISL,ioos:station:DISL:CATA:1,2008-08-01T21:30:00Z,30.3085,-88.1395,2.507,28.01,1111122 
DISL,ioos:station:DISL:CATA:1,2008-08-01T22:00:00Z,30.3085,-88.1395,2.458,28.15,1111122 
DISL,ioos:station:DISL:CATA:1,2008-08-01T22:30:00Z,30.3085,-88.1395,2.424,28.41,1111122 
DISL,ioos:station:DISL:CATA:1,2008-08-01T23:00:00Z,30.3085,-88.1395,2.397,27.44,1111122 
DISL,ioos:station:DISL:CATA:1,2008-08-01T23:30:00Z,30.3085,-88.1395,2.358,26.11,1111122 
DISL,ioos:station:DISL:CATA:1,2008-08-02T00:00:00Z,30.3085,-88.1395,2.311,26.14,1111122 
DISL,ioos:station:DISL:CATA:1,2008-08-02T00:30:00Z,30.3085,-88.1395,2.285,26.03,1111122 
DISL,ioos:station:DISL:CATA:1,2008-08-02T01:00:00Z,30.3085,-88.1395,2.253,26.12,1111122 
DISL,ioos:station:DISL:CATA:1,2008-08-02T01:30:00Z,30.3085,-88.1395,2.211,25.8,1111122 
DISL,ioos:station:DISL:CATA:1,2008-08-02T02:00:00Z,30.3085,-88.1395,2.175,25.78,1111122 
DISL,ioos:station:DISL:CATA:1,2008-08-02T02:30:00Z,30.3085,-88.1395,2.148,25.34,1111122 
DISL,ioos:station:DISL:CATA:1,2008-08-02T03:00:00Z,30.3085,-88.1395,2.135,24.65,1111122 
DISL,ioos:station:DISL:CATA:1,2008-08-02T03:30:00Z,30.3085,-88.1395,2.123,24.27,1111122 
DISL,ioos:station:DISL:CATA:1,2008-08-02T04:00:00Z,30.3085,-88.1395,2.121,23.82,1111122 
DISL,ioos:station:DISL:CATA:1,2008-08-02T04:30:00Z,30.3085,-88.1395,2.145,22.7,1111122 
DISL,ioos:station:DISL:CATA:1,2008-08-02T05:00:00Z,30.3085,-88.1395,2.18,23.16,1111122 
DISL,ioos:station:DISL:CATA:1,2008-08-02T05:30:00Z,30.3085,-88.1395,2.202,23.58,1111122 
DISL,ioos:station:DISL:CATA:1,2008-08-02T06:00:00Z,30.3085,-88.1395,2.23,23.15,1111122 
DISL,ioos:station:DISL:CATA:1,2008-08-02T06:30:00Z,30.3085,-88.1395,2.248,23.19,1111122 
DISL,ioos:station:DISL:CATA:1,2008-08-02T07:00:00Z,30.3085,-88.1395,2.242,23.27,1111122 
DISL,ioos:station:DISL:CATA:1,2008-08-02T07:30:00Z,30.3085,-88.1395,2.247,23.65,1111122 
DISL,ioos:station:DISL:CATA:1,2008-08-02T08:00:00Z,30.3085,-88.1395,2.261,23.91,1111122 
DISL,ioos:station:DISL:CATA:1,2008-08-02T08:30:00Z,30.3085,-88.1395,2.291,23.67,1111122 
DISL,ioos:station:DISL:CATA:1,2008-08-02T09:00:00Z,30.3085,-88.1395,2.315,25.28,1111122 
DISL,ioos:station:DISL:CATA:1,2008-08-02T09:30:00Z,30.3085,-88.1395,2.33,25.81,1111122 
DISL,ioos:station:DISL:CATA:1,2008-08-02T10:00:00Z,30.3085,-88.1395,2.344,26.05,1111122 
DISL,ioos:station:DISL:CATA:1,2008-08-02T10:30:00Z,30.3085,-88.1395,2.373,26.18,1111122 
DISL,ioos:station:DISL:CATA:1,2008-08-02T11:00:00Z,30.3085,-88.1395,2.408,26.48,1111122 
DISL,ioos:station:DISL:CATA:1,2008-08-02T11:30:00Z,30.3085,-88.1395,2.422,26.23,1111122 
DISL,ioos:station:DISL:CATA:1,2008-08-02T12:00:00Z,30.3085,-88.1395,2.446,26.41,1111122 
DISL,ioos:station:DISL:CATA:1,2008-08-02T12:30:00Z,30.3085,-88.1395,2.489,26.31,1111122 
DISL,ioos:station:DISL:CATA:1,2008-08-02T13:00:00Z,30.3085,-88.1395,2.516,26.33,1111122 
DISL,ioos:station:DISL:CATA:1,2008-08-02T13:30:00Z,30.3085,-88.1395,2.548,26.56,1111122 
DISL,ioos:station:DISL:CATA:1,2008-08-02T14:00:00Z,30.3085,-88.1395,2.577,26.71,1111122 
DISL,ioos:station:DISL:CATA:1,2008-08-02T14:30:00Z,30.3085,-88.1395,2.597,26.76,1111122 
DISL,ioos:station:DISL:CATA:1,2008-08-02T15:00:00Z,30.3085,-88.1395,2.622,26.7,1111122 
DISL,ioos:station:DISL:CATA:1,2008-08-02T15:30:00Z,30.3085,-88.1395,2.631,26.53,1111122 
DISL,ioos:station:DISL:CATA:1,2008-08-02T16:00:00Z,30.3085,-88.1395,2.642,26.54,1111122 
DISL,ioos:station:DISL:CATA:1,2008-08-02T16:30:00Z,30.3085,-88.1395,2.653,26.63,1111122 
DISL,ioos:station:DISL:CATA:1,2008-08-02T17:00:00Z,30.3085,-88.1395,2.627,26.79,1111122 
DISL,ioos:station:DISL:CATA:1,2008-08-02T17:30:00Z,30.3085,-88.1395,2.623,27.04,1111122 
DISL,ioos:station:DISL:CATA:1,2008-08-02T18:00:00Z,30.3085,-88.1395,2.621,27.71,1111122 
DISL,ioos:station:DISL:CATA:1,2008-08-02T18:30:00Z,30.3085,-88.1395,2.614,27.9,1111122 
DISL,ioos:station:DISL:CATA:1,2008-08-02T19:00:00Z,30.3085,-88.1395,2.61,27.93,1111122 
DISL,ioos:station:DISL:CATA:1,2008-08-02T19:30:00Z,30.3085,-88.1395,2.593,27.79,1111122 
DISL,ioos:station:DISL:CATA:1,2008-08-02T20:00:00Z,30.3085,-88.1395,2.566,27.18,1111122 
DISL,ioos:station:DISL:CATA:1,2008-08-02T20:30:00Z,30.3085,-88.1395,2.538,26.27,1111122 
DISL,ioos:station:DISL:CATA:1,2008-08-02T21:00:00Z,30.3085,-88.1395,2.492,25.26,1111122 
DISL,ioos:station:DISL:CATA:1,2008-08-02T21:30:00Z,30.3085,-88.1395,2.471,24.79,1111122 
DISL,ioos:station:DISL:CATA:1,2008-08-02T22:00:00Z,30.3085,-88.1395,2.455,24.17,1111122 
DISL,ioos:station:DISL:CATA:1,2008-08-02T22:30:00Z,30.3085,-88.1395,2.415,23.77,1111122 
DISL,ioos:station:DISL:CATA:1,2008-08-02T23:30:00Z,30.3085,-88.1395,2.319,23.25,1111122 
DISL,ioos:station:DISL:CATA:1,2008-08-03T00:30:00Z,30.3085,-88.1395,2.291,23.25,1111122 
DISL,ioos:station:DISL:CATA:1,2008-08-03T01:00:00Z,30.3085,-88.1395,2.273,23.24,1111122 
DISL,ioos:station:DISL:CATA:1,2008-08-03T01:30:00Z,30.3085,-88.1395,2.268,23.3,1111122 
DISL,ioos:station:DISL:CATA:1,2008-08-03T02:00:00Z,30.3085,-88.1395,2.271,23.23,1111122 
DISL,ioos:station:DISL:CATA:1,2008-08-03T02:30:00Z,30.3085,-88.1395,2.266,23.14,1111122 
DISL,ioos:station:DISL:CATA:1,2008-08-03T03:00:00Z,30.3085,-88.1395,2.271,23.47,1111122 
DISL,ioos:station:DISL:CATA:1,2008-08-03T03:30:00Z,30.3085,-88.1395,2.274,23.81,1111122 
DISL,ioos:station:DISL:CATA:1,2008-08-03T04:30:00Z,30.3085,-88.1395,2.261,23.25,1111122 
DISL,ioos:station:DISL:CATA:1,2008-08-03T05:00:00Z,30.3085,-88.1395,2.253,23.11,1111122 
DISL,ioos:station:DISL:CATA:1,2008-08-03T05:30:00Z,30.3085,-88.1395,2.265,22.91,1111122 
DISL,ioos:station:DISL:CATA:1,2008-08-03T06:00:00Z,30.3085,-88.1395,2.272,22.94,1111122 
DISL,ioos:station:DISL:CATA:1,2008-08-03T06:30:00Z,30.3085,-88.1395,2.293,22.83,1111122 
DISL,ioos:station:DISL:CATA:1,2008-08-03T07:00:00Z,30.3085,-88.1395,2.31,22.79,1111122 
DISL,ioos:station:DISL:CATA:1,2008-08-03T07:30:00Z,30.3085,-88.1395,2.34,22.79,1111122 
DISL,ioos:station:DISL:CATA:1,2008-08-03T08:00:00Z,30.3085,-88.1395,2.372,22.13,1111122 
DISL,ioos:station:DISL:CATA:1,2008-08-03T08:30:00Z,30.3085,-88.1395,2.374,23.18,1111122 
DISL,ioos:station:DISL:CATA:1,2008-08-03T09:00:00Z,30.3085,-88.1395,2.382,23.88,1111122 
DISL,ioos:station:DISL:CATA:1,2008-08-03T09:30:00Z,30.3085,-88.1395,2.4,24.9,1111122 
DISL,ioos:station:DISL:CATA:1,2008-08-03T10:00:00Z,30.3085,-88.1395,2.405,25.38,1111122 
DISL,ioos:station:DISL:CATA:1,2008-08-03T10:30:00Z,30.3085,-88.1395,2.412,25.52,1111122 
DISL,ioos:station:DISL:CATA:1,2008-08-03T11:00:00Z,30.3085,-88.1395,2.416,25.87,1111122 
DISL,ioos:station:DISL:CATA:1,2008-08-03T11:30:00Z,30.3085,-88.1395,2.448,26.34,1111122 
DISL,ioos:station:DISL:CATA:1,2008-08-03T12:00:00Z,30.3085,-88.1395,2.479,26.51,1111122 
DISL,ioos:station:DISL:CATA:1,2008-08-03T12:30:00Z,30.3085,-88.1395,2.526,26.56,1111122 
DISL,ioos:station:DISL:CATA:1,2008-08-03T13:00:00Z,30.3085,-88.1395,2.557,26.39,1111122 
DISL,ioos:station:DISL:CATA:1,2008-08-03T13:30:00Z,30.3085,-88.1395,2.577,26.14,1111122 
DISL,ioos:station:DISL:CATA:1,2008-08-03T14:00:00Z,30.3085,-88.1395,2.607,26.19,1111122 
DISL,ioos:station:DISL:CATA:1,2008-08-03T14:30:00Z,30.3085,-88.1395,2.65,26.76,1111122 
DISL,ioos:station:DISL:CATA:1,2008-08-03T15:00:00Z,30.3085,-88.1395,2.662,26.89,1111122 
DISL,ioos:station:DISL:CATA:1,2008-08-03T15:30:00Z,30.3085,-88.1395,2.679,26.9,1111122 
DISL,ioos:station:DISL:CATA:1,2008-08-03T16:00:00Z,30.3085,-88.1395,2.678,27.17,1111122 
DISL,ioos:station:DISL:CATA:1,2008-08-03T16:30:00Z,30.3085,-88.1395,2.679,27.36,1111122 
DISL,ioos:station:DISL:CATA:1,2008-08-03T17:00:00Z,30.3085,-88.1395,2.68,27.39,1111122 
DISL,ioos:station:DISL:CATA:1,2008-08-03T17:30:00Z,30.3085,-88.1395,2.7,27.43,1111122 
DISL,ioos:station:DISL:CATA:1,2008-08-03T18:30:00Z,30.3085,-88.1395,2.672,26.76,1111122 
DISL,ioos:station:DISL:CATA:1,2008-08-03T19:00:00Z,30.3085,-88.1395,2.675,24.77,1111122 
DISL,ioos:station:DISL:CATA:1,2008-08-03T19:30:00Z,30.3085,-88.1395,2.65,23.98,1111122 
DISL,ioos:station:DISL:CATA:1,2008-08-03T20:00:00Z,30.3085,-88.1395,2.638,23.66,1111122 
DISL,ioos:station:DISL:CATA:1,2008-08-03T20:30:00Z,30.3085,-88.1395,2.618,22.89,1111122 
DISL,ioos:station:DISL:CATA:1,2008-08-03T21:00:00Z,30.3085,-88.1395,2.594,22.71,1111122 
DISL,ioos:station:DISL:CATA:1,2008-08-03T21:30:00Z,30.3085,-88.1395,2.582,22.04,1111122 
DISL,ioos:station:DISL:CATA:1,2008-08-03T22:30:00Z,30.3085,-88.1395,2.515,23.01,1111122 
DISL,ioos:station:DISL:CATA:1,2008-08-03T23:00:00Z,30.3085,-88.1395,2.484,23.34,1111122 
DISL,ioos:station:DISL:CATA:1,2008-08-03T23:30:00Z,30.3085,-88.1395,2.463,22.96,1111122 
DISL,ioos:station:DISL:CATA:1,2008-08-04T00:00:00Z,30.3085,-88.1395,2.435,24.07,1111122 
DISL,ioos:station:DISL:CATA:1,2008-08-04T00:30:00Z,30.3085,-88.1395,2.409,23.13,1111122 
DISL,ioos:station:DISL:CATA:1,2008-08-04T01:00:00Z,30.3085,-88.1395,2.393,22.69,1111122 
DISL,ioos:station:DISL:CATA:1,2008-08-04T01:30:00Z,30.3085,-88.1395,2.383,22.46,1111122 
DISL,ioos:station:DISL:CATA:1,2008-08-04T02:00:00Z,30.3085,-88.1395,2.381,22.29,1111122 
DISL,ioos:station:DISL:CATA:1,2008-08-04T02:30:00Z,30.3085,-88.1395,2.381,22.11,1111122 
DISL,ioos:station:DISL:CATA:1,2008-08-04T03:00:00Z,30.3085,-88.1395,2.384,21.9,1111122 
DISL,ioos:station:DISL:CATA:1,2008-08-04T03:30:00Z,30.3085,-88.1395,2.393,21.88,1111122 
DISL,ioos:station:DISL:CATA:1,2008-08-04T04:00:00Z,30.3085,-88.1395,2.411,22.15,1111122 
DISL,ioos:station:DISL:CATA:1,2008-08-04T04:30:00Z,30.3085,-88.1395,2.438,22.24,1111122 
DISL,ioos:station:DISL:CATA:1,2008-08-04T05:00:00Z,30.3085,-88.1395,2.46,23.0,1111122 
DISL,ioos:station:DISL:CATA:1,2008-08-04T05:30:00Z,30.3085,-88.1395,2.467,23.15,1111122 
DISL,ioos:station:DISL:CATA:1,2008-08-04T06:00:00Z,30.3085,-88.1395,2.471,23.55,1111122 
DISL,ioos:station:DISL:CATA:1,2008-08-04T06:30:00Z,30.3085,-88.1395,2.472,24.07,1111122 
DISL,ioos:station:DISL:CATA:1,2008-08-04T07:00:00Z,30.3085,-88.1395,2.476,24.23,1111122 
DISL,ioos:station:DISL:CATA:1,2008-08-04T07:30:00Z,30.3085,-88.1395,2.493,23.54,1111122 
DISL,ioos:station:DISL:CATA:1,2008-08-04T08:30:00Z,30.3085,-88.1395,2.487,23.65,1111122 
DISL,ioos:station:DISL:CATA:1,2008-08-04T09:00:00Z,30.3085,-88.1395,2.499,24.68,1111122 
DISL,ioos:station:DISL:CATA:1,2008-08-04T09:30:00Z,30.3085,-88.1395,2.523,24.83,1111122 
DISL,ioos:station:DISL:CATA:1,2008-08-04T10:00:00Z,30.3085,-88.1395,2.521,24.86,1111122 
DISL,ioos:station:DISL:CATA:1,2008-08-04T10:30:00Z,30.3085,-88.1395,2.515,24.97,1111122 
DISL,ioos:station:DISL:CATA:1,2008-08-04T11:30:00Z,30.3085,-88.1395,2.55,24.82,1111122 
DISL,ioos:station:DISL:CATA:1,2008-08-04T12:00:00Z,30.3085,-88.1395,2.564,24.12,1111122 
DISL,ioos:station:DISL:CATA:1,2008-08-04T12:30:00Z,30.3085,-88.1395,2.57,24.24,1111122 
DISL,ioos:station:DISL:CATA:1,2008-08-04T13:00:00Z,30.3085,-88.1395,2.584,24.01,1111122 
DISL,ioos:station:DISL:CATA:1,2008-08-04T13:30:00Z,30.3085,-88.1395,2.599,24.45,1111122 
DISL,ioos:station:DISL:CATA:1,2008-08-04T14:00:00Z,30.3085,-88.1395,2.607,24.44,1111122 
DISL,ioos:station:DISL:CATA:1,2008-08-04T14:30:00Z,30.3085,-88.1395,2.621,24.71,1111122 
DISL,ioos:station:DISL:CATA:1,2008-08-04T15:00:00Z,30.3085,-88.1395,2.636,24.72,1111122 
DISL,ioos:station:DISL:CATA:1,2008-08-04T15:30:00Z,30.3085,-88.1395,2.656,24.08,1111122 
DISL,ioos:station:DISL:CATA:1,2008-08-04T16:00:00Z,30.3085,-88.1395,2.654,24.83,1111122 
DISL,ioos:station:DISL:CATA:1,2008-08-04T16:30:00Z,30.3085,-88.1395,2.642,24.87,1111122 
DISL,ioos:station:DISL:CATA:1,2008-08-04T17:00:00Z,30.3085,-88.1395,2.65,25.11,1111122 
DISL,ioos:station:DISL:CATA:1,2008-08-04T17:30:00Z,30.3085,-88.1395,2.663,25.19,1111122 
DISL,ioos:station:DISL:CATA:1,2008-08-04T18:00:00Z,30.3085,-88.1395,2.657,25.12,1111122 
DISL,ioos:station:DISL:CATA:1,2008-08-04T18:30:00Z,30.3085,-88.1395,2.644,23.99,1111122 
DISL,ioos:station:DISL:CATA:1,2008-08-04T19:00:00Z,30.3085,-88.1395,2.626,25.25,1111122 
DISL,ioos:station:DISL:CATA:1,2008-08-04T19:30:00Z,30.3085,-88.1395,2.624,25.25,1111122 
DISL,ioos:station:DISL:CATA:1,2008-08-04T20:00:00Z,30.3085,-88.1395,2.618,25.17,1111122 
DISL,ioos:station:DISL:CATA:1,2008-08-04T20:30:00Z,30.3085,-88.1395,2.623,25.14,1111122 
DISL,ioos:station:DISL:CATA:1,2008-08-04T21:00:00Z,30.3085,-88.1395,2.621,25.1,1111122 
DISL,ioos:station:DISL:CATA:1,2008-08-04T21:30:00Z,30.3085,-88.1395,2.615,24.9,1111122 
DISL,ioos:station:DISL:CATA:1,2008-08-04T22:00:00Z,30.3085,-88.1395,2.595,24.65,1111122 
DISL,ioos:station:DISL:CATA:1,2008-08-04T22:30:00Z,30.3085,-88.1395,2.582,24.34,1111122 
DISL,ioos:station:DISL:CATA:1,2008-08-04T23:00:00Z,30.3085,-88.1395,2.535,24.27,1111122 
DISL,ioos:station:DISL:CATA:1,2008-08-04T23:30:00Z,30.3085,-88.1395,2.515,24.18,1111122 
DISL,ioos:station:DISL:CATA:1,2008-08-05T00:00:00Z,30.3085,-88.1395,2.507,24.27,1111122 
DISL,ioos:station:DISL:CATA:1,2008-08-05T00:30:00Z,30.3085,-88.1395,2.48,24.2,1111122 
DISL,ioos:station:DISL:CATA:1,2008-08-05T01:00:00Z,30.3085,-88.1395,2.47,24.19,1111122 
DISL,ioos:station:DISL:CATA:1,2008-08-05T01:30:00Z,30.3085,-88.1395,2.465,24.37,1111122 
DISL,ioos:station:DISL:CATA:1,2008-08-05T02:00:00Z,30.3085,-88.1395,2.482,24.42,1111122 
DISL,ioos:station:DISL:CATA:1,2008-08-05T02:30:00Z,30.3085,-88.1395,2.487,24.31,1111122 
DISL,ioos:station:DISL:CATA:1,2008-08-05T03:00:00Z,30.3085,-88.1395,2.492,24.26,1111122 
DISL,ioos:station:DISL:CATA:1,2008-08-05T03:30:00Z,30.3085,-88.1395,2.514,24.4,1111122 
DISL,ioos:station:DISL:CATA:1,2008-08-05T04:00:00Z,30.3085,-88.1395,2.533,24.52,1111122 
DISL,ioos:station:DISL:CATA:1,2008-08-05T04:30:00Z,30.3085,-88.1395,2.524,23.9,1111122 
DISL,ioos:station:DISL:CATA:1,2008-08-05T05:00:00Z,30.3085,-88.1395,2.543,24.08,1111122 
DISL,ioos:station:DISL:CATA:1,2008-08-05T05:30:00Z,30.3085,-88.1395,2.545,24.68,1111122 
DISL,ioos:station:DISL:CATA:1,2008-08-05T06:00:00Z,30.3085,-88.1395,2.569,24.73,1111122 
DISL,ioos:station:DISL:CATA:1,2008-08-05T06:30:00Z,30.3085,-88.1395,2.558,24.69,1111122 
DISL,ioos:station:DISL:CATA:1,2008-08-05T07:00:00Z,30.3085,-88.1395,2.577,24.59,1111122 
DISL,ioos:station:DISL:CATA:1,2008-08-05T07:30:00Z,30.3085,-88.1395,2.59,24.47,1111122 
DISL,ioos:station:DISL:CATA:1,2008-08-05T08:00:00Z,30.3085,-88.1395,2.59,24.5,1111122 
DISL,ioos:station:DISL:CATA:1,2008-08-05T08:30:00Z,30.3085,-88.1395,2.607,23.78,1111122 
DISL,ioos:station:DISL:CATA:1,2008-08-05T09:00:00Z,30.3085,-88.1395,2.604,24.43,1111122 
DISL,ioos:station:DISL:CATA:1,2008-08-05T09:30:00Z,30.3085,-88.1395,2.608,24.43,1111122 
DISL,ioos:station:DISL:CATA:1,2008-08-05T10:00:00Z,30.3085,-88.1395,2.607,24.49,1111122 
DISL,ioos:station:DISL:CATA:1,2008-08-05T10:30:00Z,30.3085,-88.1395,2.584,24.56,1111122 
DISL,ioos:station:DISL:CATA:1,2008-08-05T11:00:00Z,30.3085,-88.1395,2.577,24.56,1111122 
DISL,ioos:station:DISL:CATA:1,2008-08-05T11:30:00Z,30.3085,-88.1395,2.57,24.56,1111122 
DISL,ioos:station:DISL:CATA:1,2008-08-05T12:00:00Z,30.3085,-88.1395,2.557,24.57,1111122 
DISL,ioos:station:DISL:CATA:1,2008-08-05T12:30:00Z,30.3085,-88.1395,2.553,24.24,1111122 
DISL,ioos:station:DISL:CATA:1,2008-08-05T13:00:00Z,30.3085,-88.1395,2.549,23.8,1111122 
DISL,ioos:station:DISL:CATA:1,2008-08-05T13:30:00Z,30.3085,-88.1395,2.541,23.5,1111122 
DISL,ioos:station:DISL:CATA:1,2008-08-05T14:00:00Z,30.3085,-88.1395,2.537,23.52,1111122 
DISL,ioos:station:DISL:CATA:1,2008-08-05T14:30:00Z,30.3085,-88.1395,2.534,24.65,1111122 
DISL,ioos:station:DISL:CATA:1,2008-08-05T15:00:00Z,30.3085,-88.1395,2.536,24.58,1111122 
DISL,ioos:station:DISL:CATA:1,2008-08-05T15:30:00Z,30.3085,-88.1395,2.545,24.54,1111122 
DISL,ioos:station:DISL:CATA:1,2008-08-05T16:00:00Z,30.3085,-88.1395,2.54,24.48,1111122 
DISL,ioos:station:DISL:CATA:1,2008-08-05T16:30:00Z,30.3085,-88.1395,2.536,24.4,1111122 
DISL,ioos:station:DISL:CATA:1,2008-08-05T17:00:00Z,30.3085,-88.1395,2.537,24.48,1111122 
DISL,ioos:station:DISL:CATA:1,2008-08-05T17:30:00Z,30.3085,-88.1395,2.533,24.43,1111122 
DISL,ioos:station:DISL:CATA:1,2008-08-05T18:00:00Z,30.3085,-88.1395,2.533,24.4,1111122 
DISL,ioos:station:DISL:CATA:1,2008-08-05T18:30:00Z,30.3085,-88.1395,2.526,23.88,1111122 
DISL,ioos:station:DISL:CATA:1,2008-08-05T19:00:00Z,30.3085,-88.1395,2.523,24.53,1111122 
DISL,ioos:station:DISL:CATA:1,2008-08-05T19:30:00Z,30.3085,-88.1395,2.519,24.55,1111122 
DISL,ioos:station:DISL:CATA:1,2008-08-05T20:00:00Z,30.3085,-88.1395,2.524,24.66,1111122 
DISL,ioos:station:DISL:CATA:1,2008-08-05T20:30:00Z,30.3085,-88.1395,2.528,24.69,1111122 
DISL,ioos:station:DISL:CATA:1,2008-08-05T21:00:00Z,30.3085,-88.1395,2.526,24.0,1111122 
DISL,ioos:station:DISL:CATA:1,2008-08-05T21:30:00Z,30.3085,-88.1395,2.528,23.55,1111122 
DISL,ioos:station:DISL:CATA:1,2008-08-05T22:00:00Z,30.3085,-88.1395,2.526,24.5,1111122 
DISL,ioos:station:DISL:CATA:1,2008-08-05T22:30:00Z,30.3085,-88.1395,2.514,24.63,1111122 
DISL,ioos:station:DISL:CATA:1,2008-08-05T23:00:00Z,30.3085,-88.1395,2.512,24.68,1111122 
DISL,ioos:station:DISL:CATA:1,2008-08-05T23:30:00Z,30.3085,-88.1395,2.499,24.64,1111122 
DISL,ioos:station:DISL:CATA:1,2008-08-06T00:00:00Z,30.3085,-88.1395,2.507,24.5,1111122 
DISL,ioos:station:DISL:CATA:1,2008-08-06T00:30:00Z,30.3085,-88.1395,2.487,24.59,1111122 
DISL,ioos:station:DISL:CATA:1,2008-08-06T01:00:00Z,30.3085,-88.1395,2.481,24.68,1111122 
DISL,ioos:station:DISL:CATA:1,2008-08-06T01:30:00Z,30.3085,-88.1395,2.493,24.72,1111122 
DISL,ioos:station:DISL:CATA:1,2008-08-06T02:00:00Z,30.3085,-88.1395,2.505,25.04,1111122 
DISL,ioos:station:DISL:CATA:1,2008-08-06T02:30:00Z,30.3085,-88.1395,2.516,25.41,1111122 
DISL,ioos:station:DISL:CATA:1,2008-08-06T03:00:00Z,30.3085,-88.1395,2.535,25.47,1111122 
DISL,ioos:station:DISL:CATA:1,2008-08-06T03:30:00Z,30.3085,-88.1395,2.56,25.41,1111122 
DISL,ioos:station:DISL:CATA:1,2008-08-06T04:00:00Z,30.3085,-88.1395,2.571,24.69,1111122 
DISL,ioos:station:DISL:CATA:1,2008-08-06T04:30:00Z,30.3085,-88.1395,2.575,24.56,1111122 
DISL,ioos:station:DISL:CATA:1,2008-08-06T05:00:00Z,30.3085,-88.1395,2.586,23.58,1111122 
DISL,ioos:station:DISL:CATA:1,2008-08-06T05:30:00Z,30.3085,-88.1395,2.591,23.26,1111122 
DISL,ioos:station:DISL:CATA:1,2008-08-06T06:00:00Z,30.3085,-88.1395,2.604,23.2,1111122 
DISL,ioos:station:DISL:CATA:1,2008-08-06T06:30:00Z,30.3085,-88.1395,2.608,24.03,1111122 
DISL,ioos:station:DISL:CATA:1,2008-08-06T07:00:00Z,30.3085,-88.1395,2.606,24.59,1111122 
DISL,ioos:station:DISL:CATA:1,2008-08-06T07:30:00Z,30.3085,-88.1395,2.611,24.75,1111122 
DISL,ioos:station:DISL:CATA:1,2008-08-06T08:00:00Z,30.3085,-88.1395,2.613,24.84,1111122 
DISL,ioos:station:DISL:CATA:1,2008-08-06T08:30:00Z,30.3085,-88.1395,2.616,25.68,1111122 
DISL,ioos:station:DISL:CATA:1,2008-08-06T09:00:00Z,30.3085,-88.1395,2.618,25.97,1111122 
DISL,ioos:station:DISL:CATA:1,2008-08-06T09:30:00Z,30.3085,-88.1395,2.616,26.01,1111122 
DISL,ioos:station:DISL:CATA:1,2008-08-06T10:00:00Z,30.3085,-88.1395,2.605,26.09,1111122 
DISL,ioos:station:DISL:CATA:1,2008-08-06T10:30:00Z,30.3085,-88.1395,2.597,26.12,1111122 
DISL,ioos:station:DISL:CATA:1,2008-08-06T11:00:00Z,30.3085,-88.1395,2.584,26.1,1111122 
DISL,ioos:station:DISL:CATA:1,2008-08-06T11:30:00Z,30.3085,-88.1395,2.571,26.06,1111122 
DISL,ioos:station:DISL:CATA:1,2008-08-06T12:00:00Z,30.3085,-88.1395,2.562,25.5,1111122 
DISL,ioos:station:DISL:CATA:1,2008-08-06T12:30:00Z,30.3085,-88.1395,2.537,24.86,1111122 
DISL,ioos:station:DISL:CATA:1,2008-08-06T13:00:00Z,30.3085,-88.1395,2.513,24.83,1111122 
DISL,ioos:station:DISL:CATA:1,2008-08-06T13:30:00Z,30.3085,-88.1395,2.501,25.08,1111122 
DISL,ioos:station:DISL:CATA:1,2008-08-06T14:00:00Z,30.3085,-88.1395,2.478,25.49,1111122 
DISL,ioos:station:DISL:CATA:1,2008-08-06T14:30:00Z,30.3085,-88.1395,2.456,25.68,1111122 
DISL,ioos:station:DISL:CATA:1,2008-08-06T15:00:00Z,30.3085,-88.1395,2.448,25.69,1111122 
DISL,ioos:station:DISL:CATA:1,2008-08-06T15:30:00Z,30.3085,-88.1395,2.445,25.59,1111122 
DISL,ioos:station:DISL:CATA:1,2008-08-06T16:00:00Z,30.3085,-88.1395,2.444,25.83,1111122 
DISL,ioos:station:DISL:CATA:1,2008-08-06T16:30:00Z,30.3085,-88.1395,2.438,25.94,1111122 
DISL,ioos:station:DISL:CATA:1,2008-08-06T17:00:00Z,30.3085,-88.1395,2.425,26.01,1111122 
DISL,ioos:station:DISL:CATA:1,2008-08-06T17:30:00Z,30.3085,-88.1395,2.407,25.9,1111122 
DISL,ioos:station:DISL:CATA:1,2008-08-06T18:00:00Z,30.3085,-88.1395,2.429,25.35,1111122 
DISL,ioos:station:DISL:CATA:1,2008-08-06T18:30:00Z,30.3085,-88.1395,2.409,24.92,1111122 
DISL,ioos:station:DISL:CATA:1,2008-08-06T19:00:00Z,30.3085,-88.1395,2.392,25.84,1111122 
DISL,ioos:station:DISL:CATA:1,2008-08-06T19:30:00Z,30.3085,-88.1395,2.393,25.56,1111122 
DISL,ioos:station:DISL:CATA:1,2008-08-06T20:00:00Z,30.3085,-88.1395,2.41,25.47,1111122 
DISL,ioos:station:DISL:CATA:1,2008-08-06T20:30:00Z,30.3085,-88.1395,2.403,25.48,1111122 
DISL,ioos:station:DISL:CATA:1,2008-08-06T21:00:00Z,30.3085,-88.1395,2.406,25.69,1111122 
DISL,ioos:station:DISL:CATA:1,2008-08-06T21:30:00Z,30.3085,-88.1395,2.417,25.53,1111122 
DISL,ioos:station:DISL:CATA:1,2008-08-06T22:00:00Z,30.3085,-88.1395,2.41,25.67,1111122 
DISL,ioos:station:DISL:CATA:1,2008-08-06T22:30:00Z,30.3085,-88.1395,2.412,25.88,1111122 
DISL,ioos:station:DISL:CATA:1,2008-08-06T23:00:00Z,30.3085,-88.1395,2.416,25.52,1111122 